This is the latest recevied weather packets stored in our database for station/object SR9NLI. If no packets are shown the sender has not sent any weather packets the latest 1 day(s).
| Time | Temp. | Humidity | Pressure | Rain* | Wind** | Luminosity | Snow |
|---|---|---|---|---|---|---|---|
| 1778079371 | 21.11° C | 100% | 949.4 hPa | - | - | - | - |
| 1778079248 | 20.56° C | 100% | 949.3 hPa | - | - | - | - |
| 1778079002 | 20.56° C | 100% | 949.3 hPa | - | - | - | - |
| 1778078879 | 20.56° C | 100% | 949.5 hPa | - | - | - | - |
| 1778078695 | 20.56° C | 100% | 949.5 hPa | - | - | - | - |
| 1778078633 | 20.56° C | 100% | 949.5 hPa | - | - | - | - |
| 1778078263 | 21.11° C | 100% | 949.3 hPa | - | - | - | - |
| 1778078018 | 21.11° C | 100% | 949.5 hPa | - | - | - | - |
| 1778077957 | 21.11° C | 100% | 949.5 hPa | - | - | - | - |
| 1778077587 | 21.11° C | 100% | 949.5 hPa | - | - | - | - |
| 1778077525 | 21.11° C | 100% | 949.5 hPa | - | - | - | - |
| 1778077402 | 21.11° C | 100% | 949.5 hPa | - | - | - | - |
| 1778077155 | 21.11° C | 100% | 949.5 hPa | - | - | - | - |
| 1778076538 | 21.11° C | 100% | 949.4 hPa | - | - | - | - |
| 1778076477 | 21.11° C | 100% | 949.4 hPa | - | - | - | - |
| 1778076415 | 21.67° C | 100% | 949.4 hPa | - | - | - | - |
| 1778076292 | 22.22° C | 100% | 949.4 hPa | - | - | - | - |
| 1778075922 | 23.33° C | 100% | 949.4 hPa | - | - | - | - |
| 1778075306 | 22.78° C | 100% | 949.3 hPa | - | - | - | - |
| 1778075183 | 22.78° C | 100% | 949.3 hPa | - | - | - | - |
| 1778074989 | 22.78° C | 100% | 949.4 hPa | - | - | - | - |
| 1778074927 | 22.78° C | 100% | 949.4 hPa | - | - | - | - |
| 1778074804 | 23.33° C | 100% | 949.4 hPa | - | - | - | - |
| 1778074311 | 21.67° C | 100% | 949.2 hPa | - | - | - | - |
| 1778074188 | 22.22° C | 100% | 949.4 hPa | - | - | - | - |
* Rain since midnight (hover to see other rain measurements)
** Current wind speed in m/s (hover to see current wind gust speed)